GW5290 Weather Reports


time (UTC)temp
F
wind
direction
speed
knots
gust
knots
rain 1hr
in
rain 24hr
in
rain mn
in
humidity
%
barometer
mb
20260506044549 53 171 0.0 2.6 0.00 0.00 0.00 81 1007.4
20260506044009 53 131 0.0 1.7 0.00 0.00 0.00 81 1007.4
20260506043506 53 192 0.0 1.7 0.00 0.00 0.00 81 1007.4
20260506043022 53 181 0.0 2.6 0.00 0.00 0.00 81 1007.3
20260506042509 53 183 0.0 2.6 0.00 0.00 0.00 81 1007.5
20260506042007 53 167 0.0 1.7 0.00 0.00 0.00 81 1007.5
20260506041524 54 155 0.0 1.7 0.00 0.00 0.00 80 1007.6
20260506041014 54 109 0.0 1.7 0.00 0.00 0.00 80 1007.6
20260506040507 54 290 0.0 1.7 0.00 0.00 0.00 80 1007.4
20260506040028 54 190 0.0 2.6 0.00 0.00 0.00 80 1007.3
20260506035509 54 191 0.0 2.6 0.00 0.00 0.00 80 1007.2
20260506035007 54 167 0.9 2.6 0.00 0.00 0.00 80 1007.3
20260506034548 54 167 0.0 1.7 0.00 0.00 0.00 79 1007.2
20260506034009 54 167 0.0 2.6 0.00 0.00 0.00 79 1007.1
20260506033506 54 170 0.0 2.6 0.00 0.00 0.00 79 1007.2
20260506033025 54 134 0.0 0.9 0.00 0.00 0.00 78 1007.2
20260506032511 54 156 0.0 1.7 0.00 0.00 0.00 78 1007.1
20260506032008 55 156 0.0 1.7 0.00 0.00 0.00 78 1007.1
20260506031526 55 125 0.9 1.7 0.00 0.00 0.00 78 1007.2
20260506031008 55 149 0.0 1.7 0.00 0.00 0.00 77 1007.2
20260506030510 55 128 0.9 1.7 0.00 0.00 0.00 77 1007.2
20260506030028 55 151 0.0 1.7 0.00 0.00 0.00 77 1007.2
20260506025512 55 164 0.9 1.7 0.00 0.00 0.00 77 1007.3
20260506025007 56 192 0.0 1.7 0.00 0.00 0.00 77 1007.3
20260506024528 56 216 0.0 1.7 0.00 0.00 0.00 76 1007.2
20260506024015 56 134 0.0 0.9 0.00 0.00 0.00 75 1007.4
20260506023513 56 140 0.0 0.9 0.00 0.00 0.00 75 1007.4
20260506023026 57 140 0.0 0.9 0.00 0.00 0.00 74 1007.2
20260506022510 57 140 0.0 1.7 0.00 0.00 0.00 74 1007.2
20260506022009 57 140 0.0 1.7 0.00 0.00 0.00 74 1007.4
20260506021532 58 124 0.0 1.7 0.00 0.00 0.00 73 1007.3
20260506021012 58 153 0.0 1.7 0.00 0.00 0.00 73 1007.4
20260506020509 58 146 0.0 3.5 0.00 0.00 0.00 73 1007.5
20260506020026 58 114 0.9 3.5 0.00 0.00 0.00 73 1007.5
20260506015507 58 171 0.0 1.7 0.00 0.00 0.00 72 1007.5
20260506015011 58 171 0.0 1.7 0.00 0.00 0.00 72 1007.6
20260506014531 59 148 0.0 1.7 0.00 0.00 0.00 73 1007.6
20260506014007 59 133 0.0 2.6 0.00 0.00 0.00 73 1007.5
20260506013512 58 90 0.0 2.6 0.00 0.00 0.00 73 1007.4
20260506013027 58 267 0.0 2.6 0.00 0.00 0.00 73 1007.6
20260506012506 58 154 0.0 2.6 0.00 0.00 0.00 73 1007.4
20260506012010 58 240 0.0 1.7 0.00 0.00 0.00 73 1007.6
20260506011527 58 202 0.0 1.7 0.00 0.00 0.00 73 1007.4
20260506011009 58 210 0.0 1.7 0.00 0.00 0.00 73 1007.4
20260506010507 59 217 0.0 0.9 0.00 0.00 0.00 72 1007.2
20260506010027 59 119 0.0 1.7 0.00 0.00 0.00 71 1007.2
20260506005509 59 103 0.0 1.7 0.00 0.00 0.00 71 1007.2
20260506005010 59 132 0.0 2.6 0.00 0.00 0.00 70 1007.3
20260506004539 59 110 0.9 3.5 0.00 0.00 0.00 70 1007.3
20260506004008 60 114 0.9 3.5 0.00 0.00 0.00 69 1007.3
20260506003514 60 109 0.0 1.7 0.00 0.00 0.00 69 1007.2
20260506003038 60 238 0.0 2.6 0.00 0.00 0.00 68 1007.0
20260506002511 61 221 0.9 2.6 0.00 0.00 0.00 68 1006.8
20260506002012 61 165 0.9 2.6 0.00 0.00 0.00 67 1006.6
20260506001535 62 164 0.0 2.6 0.00 0.00 0.00 67 1006.5
20260506001010 62 148 0.9 2.6 0.00 0.00 0.00 67 1006.3
20260506000510 62 171 0.0 1.7 0.00 0.00 0.00 66 1006.0
20260506000031 62 171 0.0 2.6 0.00 0.00 0.00 67 1005.6
20260505235508 62 169 0.9 2.6 0.00 0.00 0.00 68 1005.7
20260505235011 63 122 0.9 2.6 0.00 0.00 0.00 68 1005.6
20260505234539 63 324 0.9 3.5 0.00 0.00 0.00 66 1005.7
20260505234018 63 293 0.9 3.5 0.00 0.00 0.00 67 1006.0
20260505233515 63 207 1.7 3.5 0.00 0.00 0.00 66 1006.1
20260505233019 63 286 0.9 6.1 0.00 0.00 0.00 66 1006.2
20260505232513 63 233 0.9 8.7 0.00 0.00 0.00 67 1006.1
20260505232011 62 233 1.7 8.7 0.00 0.00 0.00 66 1005.9
20260505231521 62 226 3.5 7.0 0.00 0.00 0.00 66 1005.9
20260505231009 62 219 2.6 10.4 0.00 0.00 0.00 67 1006.0
20260505230509 61 267 1.7 15.6 0.00 0.00 0.00 67 1006.2
20260505230021 61 278 7.8 15.6 0.00 0.00 0.00 67 1005.9
20260505225517 60 207 2.6 8.7 0.00 0.00 0.00 67 1004.7
20260505225010 61 180 0.9 5.2 0.00 0.00 0.00 67 1004.2
20260505224522 61 176 0.9 6.1 0.00 0.00 0.00 65 1004.0
20260505224009 62 194 1.7 6.1 0.00 0.00 0.00 65 1003.8
20260505223510 62 182 0.9 6.1 0.00 0.00 0.00 64 1003.8
20260505223024 62 204 1.7 13.9 0.00 0.00 0.00 63 1003.8
20260505222510 63 205 3.5 13.9 0.00 0.00 0.00 64 1003.8
20260505222011 63 224 5.2 21.7 0.00 0.00 0.00 63 1003.7
20260505221524 63 212 5.2 21.7 0.00 0.00 0.00 63 1003.6
20260505221011 63 200 7.0 17.4 0.00 0.00 0.00 63 1003.8
20260505220512 63 219 7.0 15.6 0.00 0.00 0.00 62 1003.6
20260505220038 63 178 4.3 12.2 0.00 0.00 0.00 62 1003.5
20260505215510 63 135 3.5 13.9 0.00 0.00 0.00 63 1003.6
20260505215006 63 179 5.2 16.5 0.00 0.00 0.00 62 1003.4
20260505214529 63 197 3.5 16.5 0.00 0.00 0.00 62 1003.6
20260505214010 64 178 5.2 14.8 0.00 0.00 0.00 62 1003.7
20260505213508 64 206 3.5 7.8 0.00 0.00 0.00 63 1003.5
20260505213026 63 158 2.6 10.4 0.00 0.00 0.00 63 1003.5
20260505212515 63 136 3.5 13.0 0.00 0.00 0.00 63 1003.5
20260505212015 64 193 5.2 13.9 0.00 0.00 0.00 62 1003.4
20260505211526 64 202 4.3 13.9 0.00 0.00 0.00 62 1003.5
20260505211006 65 201 4.3 13.9 0.00 0.00 0.00 61 1003.4
20260505210506 66 192 2.6 15.6 0.00 0.00 0.00 60 1003.2
20260505210029 66 229 5.2 15.6 0.00 0.00 0.00 59 1003.5
20260505205508 67 163 6.1 13.9 0.00 0.00 0.00 57 1003.4
20260505205010 68 173 4.3 17.4 0.00 0.00 0.00 59 1003.3
20260505204526 68 180 6.1 17.4 0.00 0.00 0.00 57 1003.3
20260505204011 68 172 5.2 13.0 0.00 0.00 0.00 58 1003.3
20260505203512 68 174 4.3 17.4 0.00 0.00 0.00 58 1003.3
20260505203025 68 225 3.5 17.4 0.00 0.00 0.00 57 1003.2
20260505202508 68 20 5.2 17.4 0.00 0.00 0.00 57 1003.5
20260505202012 68 232 3.5 14.8 0.00 0.00 0.00 57 1003.3
20260505201526 68 159 4.3 14.8 0.00 0.00 0.00 58 1003.4
20260505201008 68 147 3.5 14.8 0.00 0.00 0.00 60 1003.5
20260505200510 68 200 1.7 7.8 0.00 0.00 0.00 59 1003.6
20260505200028 68 155 1.7 5.2 0.00 0.00 0.00 59 1003.7
20260505195506 68 252 1.7 6.1 0.00 0.00 0.00 60 1003.6
20260505195016 67 171 1.7 9.6 0.00 0.00 0.00 61 1003.7
20260505194534 67 182 2.6 9.6 0.00 0.00 0.00 60 1003.7
20260505194011 68 188 2.6 7.0 0.00 0.00 0.00 59 1003.7
20260505193509 68 167 2.6 7.0 0.00 0.00 0.00 59 1003.8
20260505193038 68 127 2.6 7.0 0.00 0.00 0.00 58 1003.8
20260505192512 68 187 2.6 6.1 0.00 0.00 0.00 59 1003.9
20260505192007 68 151 1.7 7.0 0.00 0.00 0.00 58 1003.9
20260505191541 68 49 1.7 7.0 0.00 0.00 0.00 59 1004.0
20260505191014 68 153 3.5 7.0 0.00 0.00 0.00 58 1004.2
20260505190508 68 173 2.6 5.2 0.00 0.00 0.00 60 1004.4
20260505190024 68 134 1.7 5.2 0.00 0.00 0.00 59 1004.5
20260505185504 68 74 1.7 5.2 0.00 0.00 0.00 59 1004.6
20260505185006 67 185 1.7 7.0 0.00 0.00 0.00 61 1004.6
20260505184516 67 173 0.9 7.0 0.00 0.00 0.00 60 1004.7
20260505184004 67 140 0.9 4.3 0.00 0.00 0.00 61 1004.7
20260505183507 67 165 1.7 4.3 0.00 0.00 0.00 62 1004.9
20260505183023 67 212 1.7 5.2 0.00 0.00 0.00 60 1004.9
20260505182502 67 192 1.7 6.1 0.00 0.00 0.00 61 1004.9
20260505182008 67 184 0.9 7.0 0.00 0.00 0.00 60 1005.0
20260505181517 67 185 1.7 7.0 0.00 0.00 0.00 63 1005.1
20260505181005 66 199 1.7 5.2 0.00 0.00 0.00 62 1005.1
20260505180507 66 190 1.7 5.2 0.00 0.00 0.00 63 1005.0
20260505180034 66 162 1.7 4.3 0.00 0.00 0.00 64 1005.1
20260505175503 65 148 1.7 4.3 0.00 0.00 0.00 64 1005.0
20260505175006 65 228 1.7 5.2 0.00 0.00 0.00 64 1005.2
20260505174531 65 157 1.7 6.1 0.00 0.00 0.00 65 1005.2
20260505174003 65 161 0.9 6.1 0.00 0.00 0.00 64 1005.3
20260505173507 65 53 0.9 4.3 0.00 0.00 0.00 64 1005.4
20260505173020 65 178 1.7 8.7 0.00 0.00 0.00 62 1005.5
20260505172502 65 167 1.7 8.7 0.00 0.00 0.00 63 1005.5
20260505172008 65 111 1.7 6.1 0.00 0.00 0.00 64 1005.6
20260505171530 65 179 1.7 6.1 0.00 0.00 0.00 63 1005.8
20260505171003 64 132 1.7 6.1 0.00 0.00 0.00 65 1005.8
20260505170507 64 98 0.9 4.3 0.00 0.00 0.00 66 1005.9
20260505170028 64 182 0.9 3.5 0.00 0.00 0.00 66 1005.9
20260505165503 64 176 0.9 3.5 0.00 0.00 0.00 64 1006.0
20260505165007 64 130 0.9 4.3 0.00 0.00 0.00 63 1006.0
20260505164524 65 86 0.9 4.3 0.00 0.00 0.00 65 1006.1
20260505164010 65 161 1.7 4.3 0.00 0.00 0.00 64 1006.1
20260505163507 64 171 0.9 3.5 0.00 0.00 0.00 64 1006.1
20260505163024 64 161 0.9 3.5 0.00 0.00 0.00 66 1006.5
20260505162506 64 155 0.9 4.3 0.00 0.00 0.00 65 1006.5
20260505162007 65 157 0.9 4.3 0.00 0.00 0.00 66 1006.8
20260505161506 65 121 0.9 4.3 0.00 0.00 0.00 63 1006.6
20260505161007 65 159 1.7 3.5 0.00 0.00 0.00 61 1006.6
20260505160510 66 142 0.9 3.5 0.00 0.00 0.00 62 1006.7
20260505153003 62 159 0.9 3.5 0.00 0.00 0.00 67 1007.1
20260505152503 61 177 1.7 3.5 0.00 0.00 0.00 70 1007.3
20260505152005 60 151 0.9 2.6 0.00 0.00 0.00 71 1007.5
20260505151504 59 173 0.9 2.6 0.00 0.00 0.00 74 1007.5
20260505151002 58 182 0.0 2.6 0.00 0.00 0.00 74 1007.6
20260505150503 57 106 0.0 2.6 0.00 0.00 0.00 76 1007.6
20260505140505 63 199 0.9 3.5 0.00 0.00 0.00 65 1007.1
20260505125003 59 132 0.9 2.6 0.00 0.00 0.00 68 1007.2
20260505124511 59 130 0.9 2.6 0.00 0.00 0.00 70 1007.2
20260505124004 58 186 0.9 2.6 0.00 0.00 0.00 69 1007.3
20260505123503 58 153 0.0 2.6 0.00 0.00 0.00 69 1007.1
20260505123009 58 190 0.9 2.6 0.00 0.00 0.00 71 1007.1
20260505122503 57 311 0.9 2.6 0.00 0.00 0.00 71 1007.2
20260505122005 57 112 0.0 2.6 0.00 0.00 0.00 73 1007.2
20260505121509 56 175 0.9 2.6 0.00 0.00 0.00 72 1007.0
20260505121005 56 193 0.9 2.6 0.00 0.00 0.00 76 1007.1
20260505120507 55 165 0.9 2.6 0.00 0.00 0.00 75 1007.3
20260505120006 55 196 0.0 2.6 0.00 0.00 0.00 75 1007.4
20260505115504 55 221 0.9 2.6 0.00 0.00 0.00 75 1007.5
20260505115007 54 150 0.0 1.7 0.00 0.00 0.00 77 1007.6
20260505114508 53 148 0.0 1.7 0.00 0.00 0.00 78 1007.6
20260505114004 52 165 0.0 1.7 0.00 0.00 0.00 80 1007.8
20260505113502 51 169 0.9 1.7 0.00 0.00 0.00 81 1007.8
20260505113005 51 102 0.9 1.7 0.00 0.00 0.00 83 1007.8
20260505112507 50 135 0.0 1.7 0.00 0.00 0.00 84 1007.7
20260505112006 49 133 0.9 1.7 0.00 0.00 0.00 85 1007.7
20260505111505 49 169 0.9 2.6 0.00 0.00 0.00 85 1007.7
20260505111002 48 182 0.0 2.6 0.00 0.00 0.00 86 1007.7
20260505110505 48 167 0.0 0.9 0.00 0.00 0.00 86 1007.7
20260505102006 47 177 0.0 1.7 0.00 0.00 0.00 86 1007.7
20260505101506 47 177 0.0 1.7 0.00 0.00 0.00 86 1007.7
20260505101007 47 177 0.0 0.9 0.00 0.00 0.00 86 1007.6
20260505100503 46 177 0.0 0.9 0.00 0.00 0.00 86 1007.6
20260505100008 46 177 0.0 1.7 0.00 0.00 0.00 86 1007.6
20260505095504 46 177 0.0 2.6 0.00 0.00 0.00 86 1007.6
20260505095004 46 177 0.9 2.6 0.00 0.00 0.00 86 1007.6
20260505094510 46 167 0.0 2.6 0.00 0.00 0.00 85 1007.5
20260505094006 46 167 0.0 0.9 0.00 0.00 0.00 85 1007.6
20260505093507 46 167 0.0 2.6 0.00 0.00 0.00 85 1007.6
20260505093012 46 167 0.0 2.6 0.00 0.00 0.00 85 1007.6
20260505092505 47 168 0.0 1.7 0.00 0.00 0.00 85 1007.7
20260505092008 47 168 0.0 1.7 0.00 0.00 0.00 84 1007.6
20260505091512 47 168 0.0 0.9 0.00 0.00 0.00 84 1007.7
20260505091006 47 168 0.0 0.9 0.00 0.00 0.00 83 1007.7
20260505090506 47 168 0.0 0.9 0.00 0.00 0.00 82 1007.7
20260505090012 47 168 0.0 0.9 0.00 0.00 0.00 82 1007.7
20260505085504 47 168 0.0 0.9 0.00 0.00 0.00 81 1007.7
20260505085010 48 168 0.0 0.9 0.00 0.00 0.00 81 1007.8
20260505084517 48 168 0.0 0.9 0.00 0.00 0.00 80 1007.8
20260505084005 48 168 0.0 0.9 0.00 0.00 0.00 80 1007.8
20260505083505 48 168 0.0 0.9 0.00 0.00 0.00 79 1007.8
20260505083014 49 168 0.0 0.9 0.00 0.00 0.00 78 1007.8
20260505082504 49 168 0.0 0.9 0.00 0.00 0.00 77 1007.8
20260505082003 49 168 0.0 0.9 0.00 0.00 0.00 76 1007.9
20260505081510 49 212 0.0 0.9 0.00 0.00 0.00 76 1007.8
20260505081007 49 212 0.0 0.0 0.00 0.00 0.00 75 1007.9
20260505080506 50 212 0.0 0.9 0.00 0.00 0.00 75 1007.8
20260505080027 50 212 0.0 0.9 0.00 0.00 0.00 75 1007.8
20260505075506 50 212 0.0 0.9 0.00 0.00 0.00 74 1007.9
20260505075012 50 212 0.0 1.7 0.00 0.00 0.00 74 1007.9
20260505074513 51 212 0.0 1.7 0.00 0.00 0.00 73 1007.9
20260505074006 51 175 0.0 0.9 0.00 0.00 0.00 72 1008.0
20260505073506 51 172 0.0 0.9 0.00 0.00 0.00 72 1007.9
20260505073017 52 172 0.0 0.9 0.00 0.00 0.00 71 1007.9
20260505072507 52 172 0.0 0.9 0.00 0.00 0.00 70 1007.8
20260505072007 53 172 0.0 1.7 0.00 0.00 0.00 69 1007.7
20260505071512 53 172 0.0 1.7 0.00 0.00 0.00 68 1007.7
20260505071011 54 163 0.0 1.7 0.00 0.00 0.00 67 1007.7
20260505070508 54 158 0.0 1.7 0.00 0.00 0.00 65 1007.7
20260505070012 55 159 0.0 1.7 0.00 0.00 0.00 63 1007.6
20260505065509 55 182 0.0 2.6 0.00 0.00 0.00 61 1007.6
20260505065007 56 220 0.9 6.1 0.00 0.00 0.00 61 1007.7
20260505064515 56 240 0.9 6.1 0.00 0.00 0.00 60 1007.6
20260505064007 56 234 1.7 7.0 0.00 0.00 0.00 60 1007.6
20260505063507 56 209 2.6 7.0 0.00 0.00 0.00 59 1007.5
20260505063015 56 206 2.6 7.0 0.00 0.00 0.00 59 1007.4
20260505062508 56 229 3.5 7.0 0.00 0.00 0.00 59 1007.4
20260505062004 56 236 2.6 6.1 0.00 0.00 0.00 59 1007.3
20260505061528 57 201 3.5 7.0 0.00 0.00 0.00 58 1007.3
20260505061009 57 201 2.6 9.6 0.00 0.00 0.00 58 1007.4
20260505060507 57 223 3.5 9.6 0.00 0.00 0.00 58 1007.4
20260505060023 57 226 1.7 7.0 0.00 0.00 0.00 57 1007.3
20260505055506 57 232 2.6 8.7 0.00 0.00 0.00 57 1007.4
20260505055007 57 225 3.5 8.7 0.00 0.00 0.00 57 1007.3
20260505054516 58 231 3.5 7.8 0.00 0.00 0.00 57 1007.3
20260505054008 58 240 1.7 7.8 0.00 0.00 0.00 57 1007.4
20260505053512 58 230 4.3 9.6 0.00 0.00 0.00 57 1007.4
20260505053016 58 207 4.3 9.6 0.00 0.00 0.00 57 1007.4
20260505052508 58 255 2.6 10.4 0.00 0.00 0.00 56 1007.3
20260505052008 58 233 3.5 10.4 0.00 0.00 0.00 57 1007.3
20260505051515 58 213 3.5 7.8 0.00 0.00 0.00 57 1007.4
20260505051007 58 195 3.5 7.8 0.00 0.00 0.00 57 1007.3
20260505050508 58 207 3.5 8.7 0.00 0.00 0.00 57 1007.3